Cheboygan, MI

2:14 PM EDT on July 26, 2017 (GMT -0400)
Cheboygan

Weather History for KSLH - November, 2012

Change the Weather History Date:

Saturday, November 24, 2012

  Actual Average (KMCD) Record (KMCD)
Temperature  
Mean Temperature 28 °F -  
Max Temperature 29 °F 37 °F 51 °F (1983)
Min Temperature 26 °F 29 °F 10 °F (2005)
Degree Days  
Heating Degree Days 38    
Moisture  
Dew Point 19 °F    
Average Humidity 69    
Maximum Humidity 76    
Minimum Humidity 63    
Precipitation  
Precipitation 0.00 in - - ()
Sea Level Pressure  
Sea Level Pressure 30.00 in    
Wind  
Wind Speed 14 mph (NW)    
Max Wind Speed 24 mph    
Max Gust Speed 33 mph    
Visibility 10 miles    
Events      
Averages and records for this station are not official NWS values.
T = Trace of Precipitation, MM = Missing Value Source: NWS Daily Summary

Daily Weather History Graph

Daily Weather History Graph

Search for Another Location

Airport or City:

Trip Planner

Search our weather history database for the weather conditions in past years. The results will help you decide how hot, cold, wet, or windy it might be!

Date:

Astronomy

Nov. 24, 2012 Rise Set
Actual Time 7:50 AM EST 4:59 PM EST
Civil Twilight 7:17 AM EST 5:32 PM EST
Nautical Twilight 6:40 AM EST 6:08 PM EST
Astronomical Twilight 6:05 AM EST 6:44 PM EST
Moon 2:51 PM EST (11/24) 3:57 AM EST (11/24)
Length of Visible Light 10h 15m
Length of Day
9h 08m
Waxing Gibbous, 87% of the Moon is Illuminated
Nov 24
Waxing Gibbous
Nov 28
Full
Dec 6
Last Quarter
Dec 13
New
Dec 20
First Quarter

Hourly Weather History & Observations

Time (EST) Temp. Windchill Dew Point Humidity Pressure Visibility Wind Dir Wind Speed Gust Speed Precip Events Conditions
12:15 AM 29.3 °F 18.6 °F 22.5 °F 76% 29.91 in 10.0 mi NW 13.8 mph 28.8 mph N/A   Scattered Clouds
12:35 AM 29.1 °F 18.4 °F 21.9 °F 74% 29.92 in 10.0 mi NW 13.8 mph 24.2 mph N/A   Scattered Clouds
12:56 AM 29.1 °F 18.9 °F 21.4 °F 73% 29.92 in 10.0 mi NW 12.7 mph 27.6 mph N/A   Scattered Clouds
1:15 AM 28.9 °F 16.9 °F 21.6 °F 74% 29.92 in 10.0 mi NW 17.3 mph 23.0 mph N/A   Mostly Cloudy
1:35 AM 28.9 °F 16.9 °F 21.6 °F 74% 29.93 in 10.0 mi NW 17.3 mph 21.9 mph N/A   Mostly Cloudy
1:55 AM 28.9 °F 17.3 °F 21.6 °F 74% 29.93 in 10.0 mi NW 16.1 mph 23.0 mph N/A   Mostly Cloudy
2:15 AM 28.9 °F 16.9 °F 21.2 °F 73% 29.94 in 10.0 mi NW 17.3 mph 26.5 mph N/A   Scattered Clouds
2:35 AM 28.4 °F 17.5 °F 21.0 °F 74% 29.95 in 10.0 mi WNW 13.8 mph - N/A   Scattered Clouds
2:55 AM 28.4 °F 16.6 °F 21.2 °F 74% 29.95 in 10.0 mi NW 16.1 mph 23.0 mph N/A   Scattered Clouds
3:15 AM 28.2 °F 16.3 °F 21.2 °F 75% 29.96 in 10.0 mi WNW 16.1 mph 23.0 mph N/A   Scattered Clouds
3:35 AM 28.4 °F 16.2 °F 21.0 °F 74% 29.96 in 10.0 mi NW 17.3 mph 24.2 mph N/A   Scattered Clouds
3:55 AM 28.4 °F 15.8 °F 21.2 °F 74% 29.96 in 10.0 mi NW 18.4 mph 24.2 mph N/A   Mostly Cloudy
4:15 AM 28.4 °F 17.5 °F 20.7 °F 73% 29.97 in 10.0 mi NW 13.8 mph 23.0 mph N/A   Scattered Clouds
4:35 AM 28.4 °F 16.6 °F 20.3 °F 72% 29.97 in 10.0 mi NW 16.1 mph 26.5 mph N/A   Scattered Clouds
4:55 AM 28.4 °F 16.6 °F 20.3 °F 72% 29.97 in 10.0 mi WNW 16.1 mph 29.9 mph N/A   Mostly Cloudy
5:15 AM 28.4 °F 15.8 °F 20.1 °F 71% 29.97 in 10.0 mi NW 18.4 mph 27.6 mph N/A   Mostly Cloudy
5:35 AM 28.4 °F 17.0 °F 20.3 °F 72% 29.98 in 10.0 mi NNW 15.0 mph 29.9 mph N/A   Overcast
5:55 AM 28.4 °F 16.6 °F 19.4 °F 69% 29.99 in 10.0 mi NNW 16.1 mph 31.1 mph N/A   Overcast
6:15 AM 28.4 °F 14.1 °F 19.4 °F 69% 29.99 in 10.0 mi NW 24.2 mph 32.2 mph N/A   Overcast
6:35 AM 28.0 °F 15.3 °F 18.3 °F 67% 30.00 in 10.0 mi NW 18.4 mph 29.9 mph N/A   Overcast
6:55 AM 28.0 °F 15.3 °F 18.7 °F 68% 30.01 in 10.0 mi NW 18.4 mph 33.4 mph N/A   Overcast
7:15 AM 27.5 °F 13.9 °F 18.3 °F 68% 30.02 in 10.0 mi NW 20.7 mph 31.1 mph N/A   Overcast
7:35 AM 27.3 °F 16.1 °F 17.8 °F 67% 30.02 in 10.0 mi NW 13.8 mph 26.5 mph N/A   Overcast
7:56 AM 27.0 °F 15.2 °F 16.9 °F 66% 30.03 in 10.0 mi WNW 15.0 mph 24.2 mph N/A   Overcast
8:15 AM 26.6 °F 14.3 °F 16.7 °F 66% 30.03 in 10.0 mi NW 16.1 mph 24.2 mph N/A   Overcast
8:35 AM 26.6 °F 15.7 °F 17.4 °F 68% 30.04 in 10.0 mi NW 12.7 mph 21.9 mph N/A   Overcast
8:55 AM 26.6 °F 13.8 °F 16.7 °F 66% 30.05 in 10.0 mi WNW 17.3 mph 26.5 mph N/A   Overcast
9:16 AM 26.6 °F 12.4 °F 17.1 °F 67% 30.04 in 10.0 mi WNW 21.9 mph 27.6 mph N/A   Overcast
9:35 AM 27.0 °F 15.2 °F 16.9 °F 66% 30.05 in 10.0 mi WNW 15.0 mph 27.6 mph N/A   Overcast
9:55 AM 27.3 °F 14.0 °F 17.1 °F 65% 30.05 in 10.0 mi WNW 19.6 mph 24.2 mph N/A   Overcast
10:15 AM 27.5 °F 14.6 °F 16.9 °F 64% 30.05 in 10.0 mi NW 18.4 mph 24.2 mph N/A   Overcast
10:35 AM 27.5 °F 16.3 °F 16.9 °F 64% 30.06 in 10.0 mi WNW 13.8 mph 25.3 mph N/A   Overcast
10:55 AM 28.0 °F 16.5 °F 17.1 °F 63% 30.06 in 10.0 mi WNW 15.0 mph 23.0 mph N/A   Overcast
11:15 AM 27.5 °F 14.6 °F 17.2 °F 65% 30.06 in 10.0 mi NW 18.4 mph 21.9 mph N/A   Overcast
11:35 AM 27.7 °F 16.1 °F 17.8 °F 66% 30.06 in 10.0 mi NW 15.0 mph 21.9 mph N/A   Overcast
11:55 AM 27.7 °F 16.1 °F 17.6 °F 66% 30.05 in 10.0 mi NW 15.0 mph 24.2 mph N/A   Overcast
12:15 PM 28.4 °F 16.2 °F 17.2 °F 63% 30.05 in 10.0 mi NW 17.3 mph 21.9 mph N/A   Overcast
12:35 PM 28.4 °F 16.6 °F 17.4 °F 63% 30.04 in 10.0 mi NW 16.1 mph 23.0 mph N/A   Overcast
12:55 PM 28.4 °F 18.5 °F 17.8 °F 64% 30.04 in 10.0 mi NW 11.5 mph 19.6 mph N/A   Overcast
1:15 PM 28.4 °F 17.5 °F 17.6 °F 64% 30.04 in 10.0 mi NW 13.8 mph 18.4 mph N/A   Overcast
1:35 PM 28.6 °F 18.7 °F 18.1 °F 65% 30.04 in 10.0 mi NNW 11.5 mph - N/A   Overcast
1:55 PM 28.4 °F 18.0 °F 18.5 °F 66% 30.04 in 10.0 mi WNW 12.7 mph 17.3 mph N/A   Overcast
2:15 PM 28.8 °F 18.4 °F 18.5 °F 66% 30.03 in 10.0 mi WNW 12.7 mph 18.4 mph N/A   Overcast
2:35 PM 28.8 °F 19.5 °F 19.2 °F 68% 30.03 in 10.0 mi WNW 10.4 mph - N/A   Overcast
2:55 PM 28.8 °F 17.9 °F 19.2 °F 68% 30.03 in 10.0 mi NW 13.8 mph 18.4 mph N/A   Overcast
3:15 PM 28.6 °F 19.9 °F 19.4 °F 69% 30.03 in 10.0 mi NW 9.2 mph - N/A   Overcast
3:35 PM 28.8 °F 19.0 °F 19.9 °F 70% 30.03 in 10.0 mi WNW 11.5 mph - N/A   Overcast
3:55 PM 28.8 °F 20.9 °F 19.9 °F 70% 30.03 in 10.0 mi WNW 8.1 mph - N/A   Overcast
4:15 PM 28.4 °F 19.1 °F 19.9 °F 71% 30.03 in 10.0 mi WNW 10.4 mph - N/A   Overcast
4:35 PM 28.6 °F 19.9 °F 19.4 °F 69% 30.03 in 10.0 mi WNW 9.2 mph - N/A   Overcast
4:56 PM 28.8 °F 19.5 °F 17.8 °F 64% 30.03 in 10.0 mi West 10.4 mph - N/A   Overcast
5:15 PM 28.4 °F 21.2 °F 18.5 °F 66% 30.03 in 10.0 mi WNW 6.9 mph - N/A   Overcast
5:35 PM 28.4 °F 23.3 °F 19.0 °F 68% 30.03 in 10.0 mi WNW 4.6 mph - N/A   Overcast
5:55 PM 28.4 °F 21.2 °F 19.4 °F 69% 30.02 in 10.0 mi WNW 6.9 mph - N/A   Overcast
6:15 PM 28.0 °F 20.0 °F 19.4 °F 70% 30.02 in 10.0 mi NW 8.1 mph - N/A   Overcast
6:35 PM 28.2 °F 23.1 °F 19.4 °F 70% 30.02 in 10.0 mi NW 4.6 mph - N/A   Overcast
6:55 PM 28.0 °F 21.7 °F 19.6 °F 71% 30.01 in 10.0 mi WNW 5.8 mph - N/A   Overcast
7:15 PM 28.2 °F 22.0 °F 19.4 °F 70% 30.01 in 10.0 mi WNW 5.8 mph - N/A   Overcast
7:35 PM 28.2 °F 22.0 °F 19.4 °F 70% 30.00 in 10.0 mi WNW 5.8 mph - N/A   Overcast
7:55 PM 28.0 °F 21.7 °F 19.4 °F 70% 29.99 in 10.0 mi NW 5.8 mph - N/A   Overcast
8:15 PM 27.9 °F 21.5 °F 19.4 °F 71% 29.98 in 10.0 mi NW 5.8 mph - N/A   Overcast
8:35 PM 28.0 °F - 19.4 °F 70% 29.98 in 10.0 mi Calm Calm - N/A   Overcast
8:55 PM 27.9 °F 24.0 °F 19.4 °F 71% 29.97 in 10.0 mi NW 3.5 mph - N/A   Overcast
9:15 PM 27.9 °F 21.5 °F 19.9 °F 72% 29.96 in 10.0 mi NW 5.8 mph - N/A   Overcast
9:35 PM 28.0 °F 22.8 °F 20.1 °F 72% 29.96 in 10.0 mi NW 4.6 mph - N/A   Overcast
9:55 PM 28.0 °F 22.8 °F 20.3 °F 73% 29.95 in 10.0 mi NNW 4.6 mph - N/A   Overcast
10:15 PM 28.0 °F 24.2 °F 20.3 °F 73% 29.94 in 10.0 mi NW 3.5 mph - N/A   Overcast
10:35 PM 28.2 °F - 20.7 °F 73% 29.93 in 10.0 mi Calm Calm - N/A   Overcast
10:55 PM 28.0 °F 22.8 °F 20.3 °F 73% 29.93 in 10.0 mi SSW 4.6 mph - N/A   Overcast
11:15 PM 28.0 °F 22.8 °F 20.5 °F 73% 29.93 in 10.0 mi SSW 4.6 mph - N/A   Overcast
11:35 PM 28.0 °F 24.2 °F 20.3 °F 73% 29.93 in 10.0 mi SSW 3.5 mph - N/A   Overcast
11:55 PM 28.0 °F - 20.5 °F 73% 29.93 in 10.0 mi Calm Calm - N/A   Overcast